TimeEET,TemperatureF,Dew PointF,Humidity,Sea Level PressureIn,VisibilityMPH,Wind Direction,Wind SpeedMPH,Gust SpeedMPH,PrecipitationIn,Events,Conditions,WindDirDegrees,DateUTC
12:50 AM,46.4,44.6,93,30.09,-9999.0,Calm,Calm,-,N/A,,Clear,0,2012-11-13 22:50:00
1:50 AM,46.4,44.6,93,30.09,-9999.0,Calm,Calm,-,N/A,,Clear,0,2012-11-13 23:50:00
2:50 AM,46.4,44.6,93,30.09,-9999.0,Calm,Calm,-,N/A,,Clear,0,2012-11-14 00:50:00
3:50 AM,44.6,42.8,93,30.09,-9999.0,Calm,Calm,-,N/A,,Clear,0,2012-11-14 01:50:00
4:50 AM,44.6,42.8,93,30.09,-9999.0,Calm,Calm,-,N/A,,Clear,0,2012-11-14 02:50:00
5:20 AM,44.6,42.8,93,30.09,-9999.0,Calm,Calm,-,N/A,,Clear,0,2012-11-14 03:20:00
5:50 AM,42.8,42.8,100,30.09,-9999.0,Calm,Calm,-,N/A,,Clear,0,2012-11-14 03:50:00
6:20 AM,42.8,42.8,100,30.09,-9999.0,Calm,Calm,-,N/A,,Clear,0,2012-11-14 04:20:00
6:50 AM,44.6,42.8,93,30.09,-9999.0,Calm,Calm,-,N/A,,Clear,0,2012-11-14 04:50:00
7:20 AM,44.6,42.8,93,30.09,-9999.0,Calm,Calm,-,N/A,,Clear,0,2012-11-14 05:20:00
7:50 AM,44.6,42.8,93,30.09,-9999.0,Calm,Calm,-,N/A,,Clear,0,2012-11-14 05:50:00
8:20 AM,48.2,46.4,93,30.09,-9999.0,Calm,Calm,-,N/A,,Clear,0,2012-11-14 06:20:00
8:50 AM,51.8,48.2,88,30.09,-9999.0,Calm,Calm,-,N/A,,Clear,0,2012-11-14 06:50:00
9:20 AM,57.2,51.8,82,30.12,-9999.0,Calm,Calm,-,N/A,,Clear,0,2012-11-14 07:20:00
9:50 AM,60.8,51.8,72,30.12,-9999.0,Calm,Calm,-,N/A,,Clear,0,2012-11-14 07:50:00
10:20 AM,64.4,53.6,68,30.12,-9999.0,Calm,Calm,-,N/A,,Clear,0,2012-11-14 08:20:00
10:50 AM,66.2,53.6,64,30.12,-9999.0,Calm,Calm,-,N/A,,Clear,0,2012-11-14 08:50:00
11:20 AM,68.0,51.8,56,30.12,-9999.0,Calm,Calm,-,N/A,,Clear,0,2012-11-14 09:20:00
11:50 AM,68.0,51.8,56,30.12,-9999.0,Variable,3.5,-,N/A,,Clear,0,2012-11-14 09:50:00
12:20 PM,68.0,51.8,56,30.12,-9999.0,Variable,3.5,-,N/A,,Clear,0,2012-11-14 10:20:00
12:50 PM,71.6,53.6,53,30.09,-9999.0,Variable,3.5,-,N/A,,Clear,0,2012-11-14 10:50:00
1:20 PM,69.8,51.8,53,30.09,-9999.0,Variable,3.5,-,N/A,,Clear,0,2012-11-14 11:20:00
1:50 PM,69.8,51.8,53,30.09,-9999.0,West,5.8,-,N/A,,Clear,270,2012-11-14 11:50:00
2:20 PM,69.8,53.6,56,30.09,-9999.0,West,5.8,-,N/A,,Clear,260,2012-11-14 12:20:00
2:50 PM,68.0,51.8,56,30.06,-9999.0,WSW,5.8,-,N/A,,Clear,240,2012-11-14 12:50:00
3:20 PM,69.8,53.6,56,30.06,-9999.0,Variable,3.5,-,N/A,,Clear,0,2012-11-14 13:20:00
3:50 PM,69.8,53.6,56,30.06,-9999.0,Variable,3.5,-,N/A,,Clear,0,2012-11-14 13:50:00
4:20 PM,68.0,53.6,60,30.06,-9999.0,Variable,3.5,-,N/A,,Clear,0,2012-11-14 14:20:00
4:50 PM,68.0,55.4,64,30.06,-9999.0,Calm,Calm,-,N/A,,Clear,0,2012-11-14 14:50:00
5:20 PM,66.2,51.8,60,30.06,-9999.0,Variable,3.5,-,N/A,,Clear,0,2012-11-14 15:20:00
5:50 PM,62.6,50.0,63,30.06,-9999.0,Calm,Calm,-,N/A,,Clear,0,2012-11-14 15:50:00
6:20 PM,57.2,53.6,88,30.09,-9999.0,Variable,3.5,-,N/A,,Clear,0,2012-11-14 16:20:00
6:50 PM,60.8,51.8,72,30.09,-9999.0,ESE,5.8,-,N/A,,Clear,120,2012-11-14 16:50:00
7:20 PM,62.6,46.4,55,30.09,-9999.0,ESE,5.8,-,N/A,,Clear,120,2012-11-14 17:20:00
7:50 PM,60.8,48.2,63,30.09,-9999.0,East,9.2,-,N/A,,Clear,90,2012-11-14 17:50:00
8:50 PM,60.8,48.2,63,30.09,-9999.0,East,9.2,-,N/A,,Clear,90,2012-11-14 18:50:00
9:50 PM,59.0,48.2,67,30.09,-9999.0,East,9.2,-,N/A,,Clear,90,2012-11-14 19:50:00
10:50 PM,59.0,48.2,67,30.09,-9999.0,East,9.2,-,N/A,,Clear,90,2012-11-14 20:50:00
11:50 PM,57.2,48.2,72,30.09,-9999.0,East,6.9,-,N/A,,Clear,90,2012-11-14 21:50:00